This is the latest recevied weather packets stored in our database for station/object EB5AGF-13. If no packets are shown the sender has not sent any weather packets the latest 1 day(s).
| Time | Temp. | Humidity | Pressure | Rain* | Wind** | Luminosity | Snow |
|---|---|---|---|---|---|---|---|
| 1778060567 | 21.67° C | 66% | 1008.5 hPa | 0 mm | 3.13 m/s, 49° | 553 W/m² | - |
| 1778059959 | 21.67° C | 68% | 1008.4 hPa | 0 mm | 0.45 m/s, 78° | 149 W/m² | - |
| 1778059655 | 21.11° C | 69% | 1008.6 hPa | 0 mm | 1.79 m/s, 79° | 544 W/m² | - |
| 1778059351 | 21.11° C | 69% | 1008.5 hPa | 0 mm | 2.24 m/s, 67° | 546 W/m² | - |
| 1778059047 | 21.67° C | 69% | 1008.5 hPa | 0 mm | 3.58 m/s, 63° | 553 W/m² | - |
| 1778058743 | 20.56° C | 71% | 1008.4 hPa | 0 mm | 2.24 m/s, 69° | 514 W/m² | - |
| 1778058135 | 20.56° C | 73% | 1008.4 hPa | 0 mm | 2.68 m/s, 31° | 89 W/m² | - |
| 1778057527 | 20° C | 74% | 1008.3 hPa | 0 mm | 2.24 m/s, 350° | 118 W/m² | - |
| 1778057224 | 20.56° C | 73% | 1008.1 hPa | 0 mm | 2.24 m/s, 80° | 161 W/m² | - |
| 1778056919 | 20.56° C | 72% | 1008.4 hPa | 0 mm | 1.34 m/s, 19° | 508 W/m² | - |
| 1778056615 | 20.56° C | 72% | 1008.3 hPa | 0 mm | 2.68 m/s, 63° | 447 W/m² | - |
| 1778056311 | 20.56° C | 72% | 1008.1 hPa | 0 mm | 1.79 m/s, 44° | 414 W/m² | - |
| 1778056007 | 20.56° C | 73% | 1008 hPa | 0 mm | 1.34 m/s, 71° | 194 W/m² | - |
| 1778055703 | 20.56° C | 71% | 1008 hPa | 0 mm | 2.68 m/s, 47° | 409 W/m² | - |
| 1778055399 | 20.56° C | 72% | 1008.2 hPa | 0 mm | 1.34 m/s, 66° | 391 W/m² | - |
| 1778055092 | 20° C | 73% | 1008.1 hPa | 0 mm | 2.24 m/s, 18° | 243 W/m² | - |
| 1778054792 | 20° C | 72% | 1008.2 hPa | 0 mm | 1.34 m/s, 16° | 102 W/m² | - |
| 1778053892 | 20° C | 72% | 1008.4 hPa | 0 mm | 1.79 m/s, 38° | 302 W/m² | - |
| 1778053591 | 20° C | 71% | 1008 hPa | 0 mm | 1.34 m/s, 70° | 297 W/m² | - |
| 1778053287 | 20° C | 69% | 1008 hPa | 0 mm | 1.79 m/s, 50° | 263 W/m² | - |
| 1778052983 | 20° C | 70% | 1008 hPa | 0 mm | 0.89 m/s, 69° | 233 W/m² | - |
| 1778052679 | 19.44° C | 70% | 1008.3 hPa | 0 mm | 1.79 m/s, 335° | 230 W/m² | - |
| 1778052071 | 19.44° C | 67% | 1008.3 hPa | 0 mm | 0.89 m/s, 2° | 212 W/m² | - |
| 1778051767 | 18.89° C | 66% | 1008.2 hPa | 0 mm | 1.79 m/s, 355° | 189 W/m² | - |
| 1778051463 | 18.89° C | 65% | 1008.5 hPa | 0 mm | 2.24 m/s, 14° | 94 W/m² | - |
* Rain latest hour (hover to see other rain measurements)
** Current wind speed in m/s (hover to see current wind gust speed)